Location: Baix
(44.7118°N, 4.7648°E)
Time: 00:22:50
(UTC+00:00)

Vanguard 3 - Pass Details

Date: 01 December 2020
Orbit: 508 x 3262 km, 33.3° (Epoch: 19 January)

Event Time Altitude Azimuth Distance (km) Brightness Sun altitude
Rises 20:44:32 0° 236° (SW) 2,637 - -49.2°
Reaches altitude 10° 20:47:20 10° 213° (SSW) 1,711 - -49.7°
Maximum altitude 20:49:40 16° 173° (S) 1,418 - -50.1°
Drops below altitude 10° 20:52:10 10° 133° (SE) 1,866 - -50.5°
Sets 20:55:27 0° 112° (ESE) 3,020 - -51.0°
